Voltar ao catálogo

BEIYOU-2

AtivoCiênciaSSO
NORAD 64052·PAYLOAD·🇨🇳 China
Este nome de satélite ainda não foi confirmado por fontes oficiais.

Lançado May 17, 2025 de Jiuquan Satellite Launch Center

Loading…

Próximas Passagens (próximas 24 horas)

TLE

AtualizadoSource: Space-Track

Época: Sep 14, 2026, 12:48 UTC

1 64052U 25103E   26257.53362545  .00009239  00000-0  36744-3 0  9993
2 64052  97.3665 328.5751 0002448 183.7121 176.4100 15.25497480 73720

Acompanhe BEIYOU-2 em tempo real com AllMySat

Download on the App Store